Volver al catálogo

HAIYANG 2B

ActivoCienciaSSO
NORAD 43655·PAYLOAD·🇨🇳 China

Lanzado Oct 24, 2018 desde Taiyuan Satellite Launch Center

Loading…

Próximos Pases (próximas 24 horas)

TLE

ActualizadoSource: CelesTrak SupGP

Época: Sep 14, 2026, 00:00 UTC

1 43655C 18081A   26257.00000000 -.00000057  00000+0 -56126-4 0  2577
2 43655  99.3324 264.4278 0001825  71.1515 174.9455 13.79306075    11

Sigue HAIYANG 2B en tiempo real con AllMySat

Download on the App Store